McAlester, OK

7:02 AM CDT on August 22, 2017 (GMT -0500)
McAlester Regional

Weather History for KMLC - January, 2013

Change the Weather History Date:

Wednesday, January 9, 2013

  Actual Average Record
Temperature  
Mean Temperature 50 °F -  
Max Temperature 53 °F 44 °F 80 °F (1957)
Min Temperature 46 °F 24 °F -2 °F (1970)
Degree Days  
Heating Degree Days 16    
Moisture  
Dew Point 48 °F    
Average Humidity 93    
Maximum Humidity 100    
Minimum Humidity 88    
Precipitation  
Precipitation 0.31 in - - ()
Sea Level Pressure  
Sea Level Pressure 30.20 in    
Wind  
Wind Speed 7 mph (NE)    
Max Wind Speed 15 mph    
Max Gust Speed 24 mph    
Visibility 3 miles    
Events Rain    
Averages and records for this station are not official NWS values.
T = Trace of Precipitation, MM = Missing Value Source: NWS Daily Summary

Daily Weather History Graph

Daily Weather History Graph

Search for Another Location

Airport or City:

Trip Planner

Search our weather history database for the weather conditions in past years. The results will help you decide how hot, cold, wet, or windy it might be!

Date:

Astronomy

Jan. 09, 2013 Rise Set
Actual Time 7:31 AM CST 5:29 PM CST
Civil Twilight 7:03 AM CST 5:57 PM CST
Nautical Twilight 6:32 AM CST 6:28 PM CST
Astronomical Twilight 6:01 AM CST 6:59 PM CST
Moon 5:11 AM CST (1/9) 3:32 PM CST (1/9)
Length of Visible Light 10h 53m
Length of Day
9h 58m
Waning Crescent, 6% of the Moon is Illuminated
Jan 9
Waning Crescent
Jan 11
New
Jan 18
First Quarter
Jan 26
Full
Feb 3
Last Quarter

Hourly Weather History & Observations

Time (CST) Temp. Windchill Dew Point Humidity Pressure Visibility Wind Dir Wind Speed Gust Speed Precip Events Conditions
12:11 AM 46.4 °F 43.5 °F 44.6 °F 93% 30.15 in 2.5 mi NE 5.8 mph - 0.01 in Rain Light Rain
12:29 AM 46.4 °F 43.5 °F 44.6 °F 93% 30.15 in 3.0 mi NE 5.8 mph - 0.01 in   Overcast
12:41 AM 46.4 °F 43.5 °F 44.6 °F 93% 30.16 in 2.5 mi NE 5.8 mph - 0.01 in   Overcast
12:53 AM 46.9 °F - 45.0 °F 93% 30.16 in 3.0 mi NE 4.6 mph - 0.01 in   Overcast
1:53 AM 46.9 °F - 45.0 °F 93% 30.17 in 4.0 mi NE 6.9 mph - N/A   Overcast
2:44 AM 46.4 °F 42.9 °F 44.6 °F 93% 30.15 in 2.5 mi NE 6.9 mph - N/A   Overcast
2:53 AM 46.0 °F 42.5 °F 44.1 °F 93% 30.16 in 2.5 mi NE 6.9 mph - N/A   Overcast
3:02 AM 46.4 °F 42.9 °F 44.6 °F 93% 30.15 in 3.0 mi NE 6.9 mph - N/A   Overcast
3:53 AM 46.9 °F - 44.1 °F 90% 30.17 in 4.0 mi NE 4.6 mph - N/A   Overcast
4:53 AM 46.0 °F 43.9 °F 44.1 °F 93% 30.17 in 4.0 mi ENE 4.6 mph - N/A   Overcast
5:49 AM 46.4 °F 42.9 °F 44.6 °F 93% 30.19 in 3.0 mi NE 6.9 mph - 0.00 in Rain Light Rain
5:53 AM 46.9 °F - 45.0 °F 93% 30.20 in 4.0 mi ENE 5.8 mph - 0.00 in Rain Light Rain
6:09 AM 46.4 °F 42.9 °F 44.6 °F 93% 30.21 in 4.0 mi NE 6.9 mph - 0.00 in   Overcast
6:20 AM 46.4 °F 43.5 °F 44.6 °F 93% 30.21 in 4.0 mi NE 5.8 mph - 0.00 in   Overcast
6:29 AM 46.4 °F 43.5 °F 44.6 °F 93% 30.21 in 3.0 mi NE 5.8 mph - 0.00 in   Overcast
6:53 AM 46.9 °F - 45.0 °F 93% 30.23 in 4.0 mi NNE 4.6 mph - 0.00 in   Overcast
7:11 AM 46.4 °F 44.3 °F 46.4 °F 100% 30.22 in 2.5 mi ENE 4.6 mph - 0.01 in   Overcast
7:21 AM 46.4 °F 44.3 °F 46.4 °F 100% 30.23 in 2.5 mi NE 4.6 mph - 0.01 in Rain Light Rain
7:30 AM 46.4 °F 42.9 °F 46.4 °F 100% 30.23 in 3.0 mi North 6.9 mph - N/A   Overcast
7:39 AM 48.2 °F - 46.4 °F 93% 30.23 in 2.5 mi NE 5.8 mph - 0.01 in   Overcast
7:53 AM 48.0 °F - 46.0 °F 93% 30.24 in 2.5 mi NE 3.5 mph - 0.01 in   Overcast
8:33 AM 48.2 °F - 46.4 °F 93% 30.25 in 1.2 mi NNE 6.9 mph - 0.00 in Rain Light Rain
8:51 AM 48.2 °F - 46.4 °F 93% 30.26 in 2.0 mi NNE 6.9 mph - 0.01 in Rain Light Rain
8:53 AM 48.0 °F - 46.0 °F 93% 30.26 in 2.0 mi NNE 8.1 mph - 0.01 in Rain Light Rain
9:00 AM 48.2 °F - 46.4 °F 93% 30.26 in 1.8 mi NE 6.9 mph - 0.00 in Rain Light Rain
9:24 AM 48.2 °F - 46.4 °F 93% 30.25 in 2.0 mi NE 6.9 mph - 0.00 in Rain Light Rain
9:43 AM 48.2 °F - 46.4 °F 93% 30.26 in 3.0 mi NE 5.8 mph - 0.00 in   Overcast
9:53 AM 48.9 °F - 46.9 °F 93% 30.26 in 3.0 mi NE 5.8 mph - 0.00 in   Overcast
10:05 AM 48.2 °F - 46.4 °F 93% 30.26 in 2.5 mi NE 5.8 mph - N/A   Overcast
10:30 AM 48.2 °F - 46.4 °F 93% 30.27 in 1.5 mi NE 5.8 mph - N/A   Overcast
10:53 AM 48.9 °F - 46.9 °F 93% 30.26 in 1.5 mi NE 8.1 mph - N/A   Overcast
11:25 AM 50.0 °F - 48.2 °F 94% 30.25 in 2.0 mi NE 11.5 mph 16.1 mph N/A   Overcast
11:53 AM 50.0 °F - 48.0 °F 93% 30.23 in 2.0 mi NE 6.9 mph - N/A   Overcast
12:07 PM 50.0 °F - 48.2 °F 94% 30.23 in 1.8 mi NE 6.9 mph - N/A   Overcast
12:33 PM 50.0 °F - 48.2 °F 94% 30.22 in 1.2 mi NE 8.1 mph - N/A   Overcast
12:53 PM 51.1 °F - 48.9 °F 92% 30.21 in 1.2 mi NE 6.9 mph - N/A   Overcast
1:14 PM 51.8 °F - 48.2 °F 88% 30.20 in 1.8 mi NE 8.1 mph - N/A   Overcast
1:22 PM 51.8 °F - 50.0 °F 94% 30.20 in 2.5 mi ENE 6.9 mph - N/A   Overcast
1:32 PM 51.8 °F - 50.0 °F 94% 30.19 in 3.0 mi ENE 10.4 mph 16.1 mph N/A   Overcast
1:53 PM 52.0 °F - 50.0 °F 93% 30.19 in 4.0 mi ENE 8.1 mph - N/A   Overcast
2:43 PM 53.6 °F - 51.8 °F 94% 30.19 in 2.5 mi ENE 6.9 mph - 0.03 in Rain Light Rain
2:53 PM 53.1 °F - 51.1 °F 93% 30.19 in 2.5 mi NE 6.9 mph - 0.04 in Rain Light Rain
3:38 PM 53.6 °F - 51.8 °F 94% 30.19 in 2.5 mi NE 6.9 mph - 0.05 in Rain Light Rain
3:53 PM 53.1 °F - 50.0 °F 89% 30.19 in 2.5 mi NE 8.1 mph - 0.06 in Rain Light Rain
4:20 PM 53.6 °F - 51.8 °F 94% 30.20 in 1.8 mi NE 8.1 mph - 0.05 in Rain Rain
4:29 PM 53.6 °F - 51.8 °F 94% 30.19 in 2.0 mi NE 6.9 mph - 0.06 in Rain Light Rain
4:53 PM 53.1 °F - 51.1 °F 93% 30.19 in 3.0 mi NE 8.1 mph - 0.08 in Rain Light Rain
5:53 PM 52.0 °F - 51.1 °F 97% 30.17 in 6.0 mi ENE 6.9 mph - 0.03 in Rain Light Rain
6:01 PM 51.8 °F - 50.0 °F 94% 30.18 in 5.0 mi ENE 6.9 mph - N/A Rain Light Rain
6:32 PM 51.8 °F - 51.8 °F 100% 30.17 in 5.0 mi East 3.5 mph - 0.02 in Rain Light Rain
6:53 PM 53.6 °F - 51.8 °F 94% 30.17 in 5.0 mi East 6.9 mph - N/A Rain Light Rain
7:53 PM 53.1 °F - 50.0 °F 89% 30.16 in 10.0 mi East 11.5 mph 18.4 mph 0.01 in Rain Light Rain
8:53 PM 53.1 °F - 50.0 °F 89% 30.14 in 10.0 mi East 10.4 mph 21.9 mph 0.02 in   Overcast
9:53 PM 52.0 °F - 50.0 °F 93% 30.13 in 4.0 mi East 15.0 mph 24.2 mph 0.02 in Rain Light Rain
10:53 PM 52.0 °F - 50.0 °F 93% 30.10 in 10.0 mi ENE 12.7 mph 20.7 mph 0.02 in   Overcast
11:53 PM 53.1 °F - 50.0 °F 89% 30.10 in 10.0 mi East 11.5 mph 24.2 mph N/A   Overcast